Kenai, AK

3:47 PM AKST on December 16, 2017 (GMT -0900)
Kenai Municipal

Weather History for PAEN - May, 2013

Change the Weather History Date:

Monday, May 27, 2013

  Actual Average Record
Temperature  
Mean Temperature 54 °F -  
Max Temperature 69 °F 56 °F 79 °F (2006)
Min Temperature 42 °F 38 °F 27 °F (2001)
Degree Days  
Heating Degree Days 11    
Growing Degree Days 4 (Base 50)    
Moisture  
Dew Point 42 °F    
Average Humidity 77    
Maximum Humidity 100    
Minimum Humidity 38    
Precipitation  
Precipitation 0.01 in - - ()
Sea Level Pressure  
Sea Level Pressure 29.85 in    
Wind  
Wind Speed 8 mph (WNW)    
Max Wind Speed 17 mph    
Max Gust Speed 22 mph    
Visibility 10 miles    
Events Rain    
Averages and records for this station are not official NWS values.
T = Trace of Precipitation, MM = Missing Value Source: NWS Daily Summary

Daily Weather History Graph

Daily Weather History Graph

Search for Another Location

Airport or City:

Trip Planner

Search our weather history database for the weather conditions in past years. The results will help you decide how hot, cold, wet, or windy it might be!

Date:

Astronomy

May. 27, 2013 Rise Set
Actual Time 4:56 AM AKDT 11:09 PM AKDT
Civil Twilight 3:33 AM AKDT 12:34 AM AKDT
Nautical Twilight Sun does not rise Sun does not rise
Astronomical Twilight Sun does not rise Sun does not rise
Moon 12:49 AM AKDT (5/27) 8:03 AM AKDT (5/27)
Length of Visible Light 21h 00m
Length of Day
18h 13m
Waning Gibbous, 90% of the Moon is Illuminated
May 27
Waning Gibbous
May 31
Last Quarter
Jun 8
New
Jun 16
First Quarter
Jun 23
Full

Hourly Weather History & Observations

Time (AKDT) Temp. Windchill Dew Point Humidity Pressure Visibility Wind Dir Wind Speed Gust Speed Precip Events Conditions
12:53 AM 45.0 °F 41.2 °F 44.1 °F 97% 29.90 in 10.0 mi North 6.9 mph - N/A   Overcast
1:53 AM 44.1 °F 40.8 °F 44.1 °F 100% 29.91 in 10.0 mi NE 5.8 mph - 0.00 in Rain Light Rain
2:53 AM 45.0 °F 41.8 °F 44.1 °F 97% 29.90 in 10.0 mi North 5.8 mph - 0.01 in   Overcast
3:53 AM 44.1 °F - 44.1 °F 100% 29.90 in 10.0 mi Calm Calm - N/A   Partly Cloudy
4:53 AM 43.0 °F - 43.0 °F 100% 29.89 in 10.0 mi Calm Calm - N/A   Clear
5:53 AM 44.1 °F 40.8 °F 43.0 °F 96% 29.88 in 10.0 mi NNE 5.8 mph - N/A   Clear
6:53 AM 45.0 °F - 43.0 °F 93% 29.89 in 10.0 mi Calm Calm - N/A   Clear
7:53 AM 48.0 °F - 45.0 °F 89% 29.89 in 10.0 mi Calm Calm - N/A   Clear
8:53 AM 52.0 °F - 45.0 °F 77% 29.89 in 10.0 mi Calm Calm - N/A   Clear
9:53 AM 55.0 °F - 46.0 °F 72% 29.88 in 10.0 mi NW 5.8 mph - N/A   Clear
10:53 AM 55.9 °F - 44.1 °F 64% 29.86 in 10.0 mi West 6.9 mph - N/A   Clear
11:53 AM 61.0 °F - 44.1 °F 54% 29.84 in 10.0 mi North 12.7 mph 16.1 mph N/A   Partly Cloudy
12:53 PM 63.0 °F - 42.1 °F 46% 29.83 in 10.0 mi North 15.0 mph 21.9 mph N/A   Clear
1:53 PM 64.9 °F - 39.9 °F 40% 29.81 in 10.0 mi North 17.3 mph - N/A   Partly Cloudy
2:53 PM 66.9 °F - 41.0 °F 39% 29.81 in 10.0 mi North 13.8 mph 21.9 mph N/A   Scattered Clouds
3:53 PM 66.0 °F - 39.9 °F 38% 29.79 in 10.0 mi North 15.0 mph - N/A   Scattered Clouds
4:53 PM 53.1 °F - 42.1 °F 66% 29.81 in 10.0 mi South 17.3 mph - N/A   Scattered Clouds
4:56 PM 51.8 °F - 42.8 °F 71% 29.80 in 10.0 mi SSW 17.3 mph - N/A   Scattered Clouds
5:53 PM 48.9 °F - 41.0 °F 74% 29.81 in 10.0 mi SSW 16.1 mph - N/A   Clear
6:53 PM 46.9 °F - 41.0 °F 80% 29.81 in 10.0 mi SSW 15.0 mph - N/A   Clear
7:53 PM 46.0 °F 40.2 °F 39.9 °F 79% 29.81 in 10.0 mi SSW 12.7 mph - N/A   Clear
8:53 PM 45.0 °F 39.3 °F 39.9 °F 82% 29.81 in 10.0 mi SSW 11.5 mph - N/A   Clear
9:53 PM 43.0 °F 36.8 °F 39.9 °F 89% 29.81 in 10.0 mi SSW 11.5 mph - N/A   Clear
10:53 PM 42.1 °F 35.2 °F 39.9 °F 92% 29.81 in 10.0 mi SSW 12.7 mph - N/A   Clear
11:53 PM 42.1 °F 35.7 °F 39.9 °F 92% 29.81 in 10.0 mi SSW 11.5 mph - N/A   Clear